Home   Weather   Buffalo   Past weeks
Flag for USA

Past Weather in Buffalo, New York, USA — Yesterday and Last 2 Weeks

Now
46 °F

Light rain. Mostly cloudy.


Feels Like: 41 °F
Forecast: 50 / 42 °F
Wind: 12 mph from South

Location: Greater Buffalo International Airport

Current Time: Dec 9, 2019 at 2:07:16 pm

Latest Report: Dec 9, 2019 at 12:54 pm


Visibility: 10 mi

Pressure: 29.64 "Hg

Humidity: 83%

Dew Point: 41 °F

Location of BuffaloLocation

Past Weather in Buffalo — Graph

°F

Buffalo Temperature Yesterday

Maximum temperature yesterday: 45 °F (at 6:54 pm)
Minimum temperature yesterday: 24 °F (at 12:54 am)
Average temperature yesterday: 37 °F

High & Low Weather Summary for the Past Weeks

 TemperatureHumidityPressure
High61 °F (Nov 27, 10:54 am)96% (Dec 4, 3:31 am)30.45 "Hg (Dec 4, 3:31 am)
Low22 °F (Dec 3, 6:54 am)39% (Nov 27, 10:54 am)29.39 "Hg (Dec 4, 1:18 pm)
Average35 °F77%29.87 "Hg
* Reported Nov 24 12:54 pm — Dec 9 12:19 pm, Buffalo. Weather by CustomWeather, © 2019

Note: Actual official high and low records may vary slightly from our data, if they occured in-between our weather recording intervals... More about our weather records

Buffalo Weather History for the Previous 24 Hours

Scroll right to see more
 ConditionsComfort  
Time TempWeatherWind HumidityBarometerVisibility
12:19 pm
Mon, Dec 9
44 °FLight rain. Mostly cloudy.13 mph89%29.66 "Hg9 mi
11:54 am45 °FLight rain. Mostly cloudy.14 mph82%29.70 "Hg9 mi
10:54 am43 °FLight rain. Mostly cloudy.9 mph79%29.76 "Hg10 mi
9:54 am43 °FLight rain. Mostly cloudy.9 mph76%29.81 "Hg7 mi
8:54 am43 °FCloudy.8 mph60%29.85 "Hg10 mi
7:54 am43 °FMostly cloudy.10 mph62%29.87 "Hg10 mi
6:54 am43 °FMostly cloudy.9 mph62%29.90 "Hg10 mi
5:54 am44 °FMostly cloudy.6 mph60%29.91 "Hg10 mi
4:54 am44 °FMostly cloudy.8 mph60%29.93 "Hg10 mi
3:54 am45 °FMostly cloudy.10 mph60%29.95 "Hg10 mi
2:54 am45 °FOvercast.13 mph60%29.96 "Hg10 mi
1:54 am45 °FMostly cloudy.14 mph60%29.97 "Hg10 mi
12:54 am45 °FMostly cloudy.14 mph60%29.98 "Hg10 mi
11:54 pm
Sun, Dec 8
45 °FPartly cloudy.15 mph60%30.00 "Hg10 mi
10:54 pm45 °FPassing clouds.15 mph63%30.00 "Hg10 mi
9:54 pm45 °FPassing clouds.17 mph63%30.00 "Hg10 mi
8:54 pm45 °FPassing clouds.20 mph63%29.99 "Hg10 mi
7:54 pm44 °FPartly cloudy.21 mph65%29.99 "Hg10 mi
6:54 pm45 °FPartly cloudy.22 mph63%30.00 "Hg10 mi
5:54 pm44 °FMostly cloudy.17 mph65%30.01 "Hg10 mi
4:54 pm43 °FMostly cloudy.16 mph62%30.03 "Hg10 mi
3:54 pm44 °FMostly cloudy.21 mph60%30.04 "Hg10 mi
2:54 pm43 °FMostly cloudy.20 mph60%30.05 "Hg10 mi
Weather by CustomWeather, © 2019

See weather overview

Advertising